Indian Springs, NV

12:03 PM PDT on August 22, 2017 (GMT -0700)
Indian Springs Air Force Auxiliary

Weather History for KINS - February, 2014

Change the Weather History Date:

Thursday, February 13, 2014

  Actual Average (KDRA) Record (KDRA)
Temperature  
Mean Temperature 54 °F -  
Max Temperature 73 °F 55 °F 77 °F (2015)
Min Temperature 35 °F 35 °F 25 °F (2004)
Degree Days  
Heating Degree Days 11    
Growing Degree Days 4 (Base 50)    
Moisture  
Dew Point 19 °F    
Average Humidity 28    
Maximum Humidity 48    
Minimum Humidity 12    
Precipitation  
Precipitation 0.00 in - - ()
Sea Level Pressure  
Sea Level Pressure 30.04 in    
Wind  
Wind Speed 4 mph (WSW)    
Max Wind Speed 8 mph    
Max Gust Speed -    
Visibility 10 miles    
Events      
Averages and records for this station are not official NWS values.
T = Trace of Precipitation, MM = Missing Value Source: NWS Daily Summary

Daily Weather History Graph

Daily Weather History Graph

Search for Another Location

Airport or City:

Trip Planner

Search our weather history database for the weather conditions in past years. The results will help you decide how hot, cold, wet, or windy it might be!

Date:

Astronomy

Feb. 13, 2014 Rise Set
Actual Time 6:32 AM PST 5:21 PM PST
Civil Twilight 6:06 AM PST 5:47 PM PST
Nautical Twilight 5:36 AM PST 6:18 PM PST
Astronomical Twilight 5:05 AM PST 6:48 PM PST
Moon 4:33 PM PST (2/13) 5:28 AM PST (2/13)
Length of Visible Light 11h 41m
Length of Day
10h 48m
Waxing Gibbous, 99% of the Moon is Illuminated
Feb 13
Waxing Gibbous
Feb 14
Full
Feb 22
Last Quarter
Mar 1
New
Mar 8
First Quarter

Hourly Weather History & Observations

Time (PST) Temp. Windchill Dew Point Humidity Pressure Visibility Wind Dir Wind Speed Gust Speed Precip Events Conditions
12:58 AM 42.1 °F 37.1 °F 19.0 °F 40% 30.08 in 10.0 mi West 8.1 mph - N/A   Clear
1:58 AM 41.4 °F 38.4 °F 18.3 °F 40% 30.08 in 10.0 mi NNW 4.6 mph - N/A   Clear
2:58 AM 40.5 °F 37.3 °F 18.7 °F 42% 30.06 in 10.0 mi WSW 4.6 mph - N/A   Clear
3:58 AM 39.7 °F 37.6 °F 18.3 °F 42% 30.06 in 10.0 mi SSE 3.5 mph - N/A   Clear
4:58 AM 39.4 °F 33.8 °F 18.1 °F 42% 30.06 in 10.0 mi West 8.1 mph - N/A   Clear
5:58 AM 37.0 °F 33.3 °F 18.5 °F 47% 30.09 in 10.0 mi West 4.6 mph - N/A   Clear
6:58 AM 35.8 °F 30.9 °F 17.6 °F 48% 30.10 in 10.0 mi NW 5.8 mph - N/A   Clear
7:58 AM 41.5 °F - 19.8 °F 42% 30.12 in 10.0 mi Calm Calm - N/A   Clear
8:58 AM 45.3 °F - 19.4 °F 36% 30.13 in 10.0 mi NW 1.2 mph - N/A   Clear
9:58 AM 53.1 °F - 19.2 °F 27% 30.10 in 10.0 mi Calm Calm - N/A   Clear
10:58 AM 60.3 °F - 18.5 °F 20% 30.09 in 10.0 mi Calm Calm - N/A   Clear
11:58 AM 66.7 °F - 19.2 °F 16% 30.03 in 10.0 mi Variable 2.3 mph - N/A   Clear
12:58 PM 70.0 °F - 19.0 °F 14% 29.99 in 10.0 mi Variable 2.3 mph - N/A   Clear
1:58 PM 73.6 °F - 18.3 °F 12% 29.98 in 10.0 mi Variable 2.3 mph - N/A   Clear
2:58 PM 73.2 °F - 18.5 °F 13% 29.97 in 10.0 mi East 1.2 mph - N/A   Clear
3:58 PM 73.4 °F - 18.7 °F 13% 29.96 in 10.0 mi West 8.1 mph - N/A   Clear
4:58 PM 69.4 °F - 20.3 °F 16% 29.95 in 10.0 mi West 5.8 mph - N/A   Clear
5:58 PM 65.8 °F - 21.0 °F 18% 29.98 in 10.0 mi SSW 8.1 mph - N/A   Clear
6:58 PM 63.3 °F - 21.2 °F 20% 30.00 in 10.0 mi SW 4.6 mph - N/A   Clear
7:08 PM 59.0 °F - 21.2 °F 23% 30.05 in 3.0 mi Variable 3.5 mph - N/A   Haze
7:13 PM 60.8 °F - 19.4 °F 20% 30.05 in 4.0 mi Calm Calm - N/A   Haze
7:18 PM 62.6 °F - 19.4 °F 19% 30.06 in 10.0 mi Variable 3.5 mph - N/A   Clear
7:58 PM 53.8 °F - 19.9 °F 27% 30.03 in 10.0 mi WNW 5.8 mph - N/A   Clear
8:58 PM 51.8 °F - 20.1 °F 29% 30.03 in 10.0 mi South 1.2 mph - N/A   Clear
9:58 PM 48.7 °F - 18.7 °F 30% 30.04 in 10.0 mi WSW 5.8 mph - N/A   Clear
10:58 PM 46.4 °F - 19.8 °F 35% 30.02 in 10.0 mi Calm Calm - N/A   Clear
11:58 PM 45.1 °F 42.0 °F 18.1 °F 34% 30.02 in 10.0 mi Variable 5.8 mph - N/A   Clear